Theta_e
341 338 331 329 327 325 324 324 323 324 325 327 325 321 317 313 313 312 309 310 308 306 304 305 305 302 300 300 300 299 298 298 293 295 297 300 300 298 299 300 303 301 303
343 336 332 330 329 323 324 324 324 324 326 327 323 319 316 313 311 310 309 310 307 305 303 305 305 306 300 298 298 297 294 295 294 293 294 297 297 298 297 298 301 304 301
340 335 331 330 330 326 324 325 325 326 327 325 321 318 316 313 309 309 309 308 306 305 307 305 303 300 297 296 296 293 294 297 295 293 293 294 295 296 296 296 298 298 303
337 334 331 331 330 326 325 324 328 327 326 325 322 318 315 312 310 309 308 306 304 304 306 304 300 299 296 295 295 293 294 295 294 293 293 292 292 295 295 294 296 297 298
336 333 332 332 331 328 326 325 327 326 326 322 318 315 312 311 310 308 307 305 303 304 306 303 302 304 306 303 300 297 296 295 293 293 292 291 291 291 292 294 293 294 296
335 333 333 331 331 329 328 327 327 323 319 316 314 312 311 311 306 308 307 305 304 304 303 303 305 304 303 303 303 305 305 297 293 293 291 290 291 291 292 293 292 291 290
335 333 332 331 329 328 328 327 321 317 316 314 312 310 306 307 305 305 307 305 305 305 302 301 300 300 298 294 301 304 305 307 301 294 291 291 291 292 293 293 291 291 291
334 334 334 332 330 329 328 325 319 316 314 312 309 307 304 306 304 303 306 306 306 305 303 302 298 294 295 294 298 296 295 295 295 297 294 294 294 295 294 295 293 293 294
333 332 333 332 330 328 326 321 318 315 313 311 306 305 305 305 301 302 305 307 305 302 303 301 297 294 296 297 297 294 292 292 300 301 300 300 299 299 299 294 293 292 291
334 334 334 332 328 326 322 318 316 315 311 307 304 305 303 299 299 301 304 306 304 303 299 300 301 295 296 296 294 292 290 290 291 293 295 296 296 296 303 295 293 293 291
335 333 331 329 327 324 320 316 313 312 307 305 304 303 300 300 298 299 300 304 301 299 299 297 296 297 295 295 294 291 292 292 293 291 293 292 292 293 295 295 295 295 293
328 325 324 323 320 318 314 313 312 309 306 304 302 300 299 299 299 298 299 299 299 296 298 296 294 295 294 294 294 294 295 296 291 293 291 291 291 292 294 294 295 296 296
322 320 319 317 315 313 312 311 310 309 306 304 302 297 296 298 298 298 297 297 298 295 295 299 295 294 294 294 295 296 296 291 291 292 291 291 292 293 293 294 296 296 296
318 316 314 312 312 313 312 311 309 309 306 304 302 298 297 297 297 297 297 298 298 296 299 298 297 294 294 294 294 296 295 293 292 292 292 293 294 294 293 294 293 293 292
313 312 312 310 311 310 310 310 310 310 307 305 304 301 298 297 297 297 296 296 294 294 294 293 291 290 290 291 293 294 294 294 294 294 294 293 293 293 293 294 294 292 291
310 310 310 310 309 309 307 305 298 301 299 298 299 302 302 297 294 294 294 294 293 293 294 294 293 292 292 293 293 294 294 297 296 294 294 292 293 293 293 294 293 292 291
308 307 307 307 307 306 306 305 300 297 296 296 296 297 297 298 294 293 293 293 292 291 291 292 293 295 296 296 297 295 296 297 296 294 294 293 294 294 294 294 294 293 293
307 303 307 307 307 306 306 304 303 301 300 298 295 297 295 294 293 293 292 292 290 290 291 293 293 294 295 296 295 293 293 295 295 295 295 294 294 294 294 294 294 293 293
306 306 307 307 307 306 306 305 304 303 302 300 300 295 295 292 291 291 291 295 293 293 292 292 292 293 294 295 295 294 294 295 295 294 294 294 295 294 294 294 294 290 291
305 302 303 307 305 305 304 303 302 301 300 299 298 298 293 291 292 291 292 294 294 295 293 292 292 292 293 294 295 296 296 295 295 295 294 295 295 295 295 294 295 294 294
306 304 298 305 304 303 302 301 301 300 299 299 298 296 289 295 294 294 293 294 295 294 294 294 294 294 295 295 296 297 297 297 296 296 296 296 296 295 296 297 297 295 298
306 304 304 303 303 302 301 301 301 300 299 298 297 295 287 295 295 295 295 294 295 295 296 296 296 296 296 297 298 299 299 297 296 296 296 296 296 296 297 297 296 297 299
306 304 304 303 303 298 300 301 301 300 299 298 298 295 292 295 295 295 295 295 295 295 296 296 296 296 297 298 299 300 299 299 299 298 297 296 295 295 296 296 298 298 298
306 304 304 303 303 302 301 301 301 296 299 299 299 298 295 295 296 296 297 297 297 298 298 298 298 297 298 298 300 301 302 301 300 299 298 296 296 295 299 298 298 299 298
306 305 304 304 303 302 301 302 301 301 300 300 299 300 299 298 297 298 299 299 300 300 300 300 300 300 299 299 300 301 297 291 297 295 298 297 297 298 297 298 298 298 296
307 306 305 306 305 304 302 302 302 302 302 304 304 303 301 299 300 300 300 301 301 301 302 302 302 302 301 301 301 297 292 291 293 290 297 299 300 300 299 300 298 298 297
Wind_Speed
13 12 13 12 12 12 11 12 12 12 11 12 12 10 10 8 7 7 6 6 7 7 5 7 7 6 4 4 4 4 4 2 2 3 1 3 3 5 5 6 6 6 6
15 14 14 13 12 11 11 11 11 12 11 13 12 12 11 10 9 8 7 7 8 7 6 9 6 5 5 5 4 5 3 2 3 2 2 3 3 4 4 6 6 6 6
15 14 14 14 15 13 11 10 10 12 13 13 14 14 13 11 8 8 8 7 7 6 9 10 7 7 5 3 4 3 2 2 2 3 3 2 2 2 4 4 4 6 6
16 15 15 15 15 13 12 12 13 13 14 15 15 14 12 11 11 8 9 9 7 7 8 10 6 7 7 6 3 1 2 3 3 3 2 3 1 3 1 2 6 3 6
16 15 15 14 13 12 12 12 12 13 13 14 15 11 11 12 9 12 11 10 8 7 7 7 7 8 9 5 3 1 2 2 1 1 2 2 3 3 2 3 3 3 5
17 16 13 14 14 14 14 14 15 13 13 15 15 16 14 8 16 15 14 11 8 8 8 8 6 9 5 4 4 3 5 4 2 2 0 2 5 3 2 2 2 3 5
17 16 16 16 16 16 14 15 15 16 17 18 15 15 11 11 19 18 15 8 8 8 9 9 7 4 4 3 6 6 6 8 5 4 2 4 4 2 2 4 2 1 3
16 16 15 16 16 15 15 16 16 16 18 16 16 14 13 12 17 15 15 10 10 12 11 7 7 6 4 4 5 5 3 2 2 1 5 6 6 6 5 4 1 4 4
18 17 18 19 18 18 18 17 16 16 14 14 14 17 15 10 13 14 12 9 9 9 8 8 7 6 6 6 5 3 2 2 4 7 8 7 10 7 6 1 4 3 4
19 18 18 18 19 20 18 17 15 15 15 12 12 10 13 11 12 9 8 5 8 6 5 7 12 8 8 7 6 4 2 2 5 8 7 7 6 6 2 1 1 2 2
15 15 15 15 16 15 15 13 15 15 14 13 14 11 14 12 8 12 12 6 5 4 4 4 4 10 9 8 7 5 4 1 3 3 3 4 4 5 4 3 3 3 1
16 15 16 15 11 12 15 13 15 15 16 15 14 13 8 12 15 13 12 9 9 5 4 4 5 12 10 8 6 7 6 1 3 3 2 3 3 3 4 5 4 1 4
15 15 15 14 13 14 16 14 11 13 14 13 12 12 10 7 9 12 12 12 9 4 3 8 11 12 9 5 6 6 3 1 0 1 1 2 3 4 5 4 4 4 4
15 13 13 14 13 11 9 11 12 12 12 13 13 9 11 10 10 8 6 7 6 1 2 8 8 6 5 3 2 3 3 3 3 3 2 3 2 2 3 2 2 3 2
9 12 12 11 11 11 9 10 11 13 15 16 13 13 13 11 12 11 10 7 5 5 5 3 3 2 3 3 3 4 3 3 3 3 3 3 2 2 2 2 1 2 1
8 8 8 9 9 9 9 7 10 10 13 11 15 12 9 10 15 15 15 14 12 10 3 3 4 4 4 4 4 4 3 5 4 4 3 3 2 1 2 2 1 1 2
9 9 7 8 8 10 10 10 10 8 12 15 15 16 12 13 16 16 15 13 12 10 4 4 4 4 5 5 5 5 5 7 5 4 4 5 3 3 3 2 2 2 3
10 10 8 8 8 9 10 10 10 13 13 9 7 12 12 13 13 14 13 12 4 2 4 5 5 4 4 5 4 5 4 4 4 5 5 4 4 3 3 3 3 3 3
8 7 7 5 7 8 9 8 9 10 9 8 8 4 6 8 8 12 16 7 7 6 5 4 4 5 5 5 4 4 5 5 5 4 5 5 5 4 5 5 4 6 4
9 14 10 8 7 8 8 9 9 9 9 8 6 7 5 5 4 4 5 7 7 7 6 6 5 5 5 5 5 5 5 5 5 5 5 5 4 4 6 5 5 5 5
7 8 11 8 8 9 9 10 9 9 9 8 7 6 8 7 6 7 8 8 8 8 6 6 6 5 5 5 5 5 6 7 6 5 5 5 4 4 5 4 5 5 6
7 9 8 8 8 8 8 8 8 9 9 8 7 6 11 6 7 8 9 9 9 7 6 7 6 5 5 5 5 6 9 8 5 5 5 5 5 5 4 3 5 5 4
8 10 8 8 8 8 8 8 9 8 8 8 8 7 8 7 7 8 9 9 7 7 6 6 6 5 5 6 5 7 9 9 9 7 6 6 5 5 5 5 5 4 4
9 11 10 8 8 7 8 9 8 7 9 9 8 8 8 9 8 10 9 7 8 8 8 7 7 9 8 8 8 7 9 9 7 8 9 6 6 6 4 5 4 5 4
8 8 9 8 9 8 9 8 6 9 8 9 8 7 8 9 10 9 9 9 8 8 9 9 9 12 13 16 12 13 12 11 9 9 6 7 8 8 6 4 4 4 5
5 6 6 6 7 7 9 9 9 10 8 6 4 1 5 10 11 12 11 10 9 9 10 8 11 15 15 13 15 15 11 13 12 12 8 7 8 7 5 7 8 4 5
Wind_Direction
178 166 166 171 165 167 179 188 166 160 155 159 154 155 145 146 143 153 150 145 131 126 123 107 101 106 88 68 63 62 54 73 102 308 307 345 18 6 355 339 337 334 330
179 167 170 163 164 170 177 188 158 165 158 163 158 153 151 153 158 150 154 156 138 133 126 109 119 97 77 72 78 61 57 30 108 32 304 332 9 351 336 350 336 337 328
165 164 167 167 173 175 172 171 161 158 168 166 160 158 159 158 144 154 147 128 131 137 139 126 136 112 94 81 76 69 60 61 79 80 315 304 307 343 343 316 316 320 334
167 170 172 177 179 166 170 171 165 163 163 166 169 163 159 150 151 146 137 133 145 149 144 130 136 124 126 102 94 85 77 47 41 38 321 317 348 305 272 283 328 332 333
175 176 182 175 168 169 167 164 158 162 168 166 155 148 150 151 151 146 140 143 146 137 144 117 124 134 128 139 150 80 20 64 35 2 345 328 289 325 324 279 281 293 304
177 184 176 172 173 172 170 167 161 155 153 153 153 156 152 159 144 144 143 145 150 144 143 125 115 110 96 78 51 1 248 144 143 189 200 270 269 245 277 271 281 0 334
180 178 179 177 179 177 172 164 160 159 156 158 156 151 140 139 149 150 145 140 136 139 139 133 127 118 125 107 60 56 39 140 165 149 210 235 283 232 276 298 329 249 248
178 181 175 178 175 171 173 173 165 157 164 160 154 152 146 153 148 141 129 133 137 139 142 141 143 158 137 127 99 84 42 2 32 224 221 256 238 273 217 207 243 284 286
189 179 181 175 173 171 174 171 162 157 159 160 157 151 150 146 122 127 131 131 142 139 140 154 149 157 155 121 111 92 29 322 329 323 291 274 280 279 218 92 355 7 311
186 180 178 166 172 173 168 164 162 159 151 145 138 134 123 117 128 121 123 160 139 132 127 157 161 147 168 143 131 140 107 291 348 354 350 357 342 331 26 109 188 299 271
165 160 156 167 167 163 153 152 151 147 141 145 138 138 143 138 139 145 149 188 138 99 149 166 155 166 166 166 162 168 188 214 353 338 337 320 321 341 337 20 201 185 269
136 139 138 145 140 145 145 146 150 147 146 146 141 138 149 147 163 181 171 136 131 132 176 179 183 175 175 185 186 219 240 354 10 2 3 313 315 327 328 328 327 336 225
124 133 132 131 135 141 143 146 144 152 150 150 150 142 146 164 174 196 159 138 137 169 204 194 183 185 176 190 227 242 260 285 356 35 282 277 254 268 306 348 355 350 336
121 125 124 126 133 143 146 151 151 156 154 149 146 157 161 169 184 184 165 150 158 157 253 177 174 154 139 172 262 255 228 204 195 218 238 255 276 8 355 338 328 326 333
116 126 130 132 142 146 152 161 166 169 166 163 164 158 162 177 191 169 163 154 164 166 110 92 109 143 165 213 239 252 266 242 219 228 220 225 260 357 337 295 250 284 297
137 128 133 139 143 150 144 122 61 127 118 111 145 157 166 142 146 163 156 154 163 139 104 161 191 174 188 210 223 243 229 249 238 207 223 219 223 234 272 296 256 276 305
141 126 135 140 152 154 154 151 134 79 97 129 134 137 150 155 165 169 169 170 166 139 172 191 196 179 206 211 224 210 238 216 186 198 215 225 215 246 237 280 284 264 288
123 132 149 155 160 159 156 154 157 154 159 159 150 157 160 149 170 177 168 123 110 186 175 191 197 197 211 219 236 207 217 200 179 212 221 221 221 229 264 254 257 249 265
132 147 142 155 161 158 150 154 154 155 156 150 152 147 155 143 155 165 158 173 186 189 193 188 192 201 213 216 241 215 210 184 184 192 216 211 228 206 253 250 252 241 256
160 156 147 158 157 154 148 153 154 157 147 152 167 181 129 114 157 154 181 197 187 196 191 195 206 210 216 215 236 212 208 189 202 209 227 225 235 214 241 246 234 236 246
167 165 145 161 170 158 157 158 165 164 159 163 172 166 163 172 176 187 185 198 202 199 197 202 208 200 208 215 214 199 222 207 203 211 222 238 241 246 233 224 234 234 244
161 152 160 156 152 159 162 163 175 169 158 169 171 157 157 178 182 183 187 198 207 204 200 200 209 209 209 203 207 208 215 222 208 216 218 227 238 240 237 225 237 233 234
150 147 155 161 165 158 158 166 174 171 165 164 165 153 168 185 188 192 196 200 200 204 207 205 210 215 217 230 214 210 211 210 220 209 209 219 220 229 207 229 232 226 221
150 153 164 167 169 168 172 174 177 168 174 168 161 174 179 194 197 202 204 203 202 211 210 207 215 224 231 234 236 227 220 218 202 206 202 205 220 216 213 223 228 227 236
151 156 166 168 167 171 175 177 164 172 175 174 176 190 182 202 211 213 213 211 211 213 212 208 213 221 225 230 230 224 222 217 206 209 204 202 209 211 208 214 223 217 216
139 160 167 173 182 174 177 177 175 172 162 120 68 235 214 203 211 213 214 209 211 213 215 215 222 221 224 228 233 236 224 224 221 223 207 195 214 223 195 215 220 201 206